Regional Weather Roundup
Issued by NWS

Home | Current Version | Previous Version | Graphics & Text | Print | Product List | Glossary On
Versions: 1 2 3 4 5 6 7 8 9 10 11 12 13 14 15 16 17 18 19 20 21 22 23 24 25 26 27 28 29 30 31 32 33 34 35 36 37 38 39 40 41 42 43 44 45 46 47 48 49 50
000
ASUS45 KBOU 232307
RWRCO

WEATHER ROUNDUP FOR COLORADO
NATIONAL WEATHER SERVICE DENVER/BOULDER CO
400 PM MST SUN NOV 23 2014

NOTE: "FAIR" INDICATES FEW OR NO CLOUDS BELOW 12000 FEET WITH NO
SIGNIFICANT WEATHER AND/OR OBSTRUCTIONS TO VISIBILITY.

COZ001>005-013-030-031-240000-
...NORTHWEST COLORADO...

CITY           SKY/WX    TMP DP  RH WIND       PRES   REMARKS
CRAIG          LGT SNOW  29  17  61 NW17G25   29.99R WCI  17
HAYDEN         MOCLDY    27  10  50 NW18G25   29.96R WCI  13
MEEKER         CLOUDY    31  15  52 NW14      30.00R WCI  21
MOUNT WERNER   NOT AVBL
STEAMBOAT SPGS MOCLDY    22  17  83 NW7       29.94S WCI  13
WALDEN         CLOUDY    19  12  73 W23G30    29.88R WCI   2
$$

COZ006>008-011-240000-
...WEST CENTRAL VALLEYS...

CITY           SKY/WX    TMP DP  RH WIND       PRES   REMARKS
GRAND JUNCTION PTCLDY    40  17  39 NW13      30.02R
MONTROSE       MOCLDY    36  22  56 NW13      30.03R
EAGLE            N/A     30  18  59 W12       29.99R WCI  21
RIFLE          LGT SNOW  30  22  72 NW12G30   30.03R WCI  20
DELTA          MOCLDY    44   8  23 NW22G29   30.02R
NUCLA          MOCLDY    36  19  51 NW14G26   30.07R
$$

COZ017>023-064>068-240000-
...SOUTHWEST COLORADO...

CITY           SKY/WX    TMP DP  RH WIND       PRES   REMARKS
DURANGO        PTCLDY    37   8  30 NW23G36   29.90R
CORTEZ         PTCLDY    40  12  32 NW18G28   30.01R
PAGOSA SPRINGS PTCLDY    36  -4  18 NW13G25   29.84R
TELLURIDE      SNOW      21  14  75 N5G33     29.99R VSB 1/2 WCI  15
WOLF CREEK PAS PTCLDY    10   0  61 MISG      29.82R
$$

COZ009-010-012-014-032>034-037-058>063-240000-
...CENTRAL COLORADO...

CITY           SKY/WX    TMP DP  RH WIND       PRES   REMARKS
ASPEN          LGT SNOW  22  17  81 N10G20    29.94R VSB 1   WCI  11
BUENA VISTA    CLOUDY    28  10  45 NW17G24   29.84R WCI  16
COPPER MTN     CLOUDY    10   3  72 W33       29.78S WCI -13
BERTHOUD PASS  HVY SNOW   1  -2  85 MISG      29.69S VSB<1/4
COTTONWOOD PAS MOCLDY    23   3  42 NW10G22   29.81R WCI  12
GUNNISON       MOCLDY    27   5  39 W6        29.94R WCI  20
KREMMLING      MOCLDY    27  10  50 NW15G24   29.92R WCI  15
LEADVILLE      SNOW      12   8  84 N14G23    29.83R VSB 1/4 WCI  -3
MONARCH PASS     N/A      7   3  85 MISG      29.89R
SALIDA         PTCLDY    33  10  38 NW13      29.91R WCI  24
SUNLIGHT       CLOUDY   N/A N/A N/A CALM      29.93R
WILKERSON PASS MOCLDY    12   7  79 NW18G32   29.78S HAZE    WCI  -5
$$

COZ069>075-240000-
...SAN LUIS VALLEY/SANGRE DE CRISTO MOUNTAINS...

CITY           SKY/WX    TMP DP  RH WIND       PRES   REMARKS
ALAMOSA        MOCLDY    33   8  35 NW25G36   29.81R WCI  20
LA VETA PASS   LGT SNOW  19  16  86 CALM      29.79R VSB 1
SAGUACHE       MOCLDY    27  16  63 NW17G26   29.85R WCI  14
$$

COZ035-036-038>040-240000-
...NORTHERN COLORADO FRONT RANGE...

CITY           SKY/WX    TMP DP  RH WIND       PRES   REMARKS
DENVER INTL AP CLOUDY    36  17  46 N17G32    29.83R
DMNS CITY PARK   N/A     34  23  64 E7G16     29.85R WCI  27
AURORA         LGT SNOW  32  22  67 NW21G30   29.86R FOG     WCI  19
FRONT RANGE AP NOT AVBL
ERIE MUNI ARPT CLOUDY    37  19  48 N13G28    29.84R
BOULDER MUN AP CLOUDY    36  14  41 NW7       29.83R
CENTENNIAL     SNOW      28  27  96 NE10      29.84R VSB 1/2 WCI  19
BROOMFIELD     MOCLDY    36  19  51 N8        29.84R
FORT COLLINS   MOCLDY    36  18  48 NW28G33   29.86R
LONGMONT       MOCLDY    37  22  54 N20G25    29.86R
$$

COZ041-046-047-076>085-087-088-240000-
...PIKES PEAK/PALMER DIVIDE AND SOUTHERN FOOTHILLS...

CITY           SKY/WX    TMP DP  RH WIND       PRES   REMARKS
COLO. SPRINGS  FLURRIES  32  21  64 NW15      29.83R WCI  22
A. F. ACADEMY  LGT SNOW  27  25  90 NW6       29.82R FOG     WCI  21
ELLICOTT       NOT AVBL
FALCON         NOT AVBL
FORT CARSON    CLOUDY    31  28  86 W3        29.82R
LIMON          MOCLDY    35  14  42 N24G33    29.80R WCI  23
MONUMENT HILL  FLURRIES  27  23  86 N14       29.81R WCI  15
TRINIDAD       CLOUDY    31  25  78 W9        29.83R WCI  23
$$

COZ042>045-048>051-090-091-240000-
...NORTHEAST COLORADO...

CITY           SKY/WX    TMP DP  RH WIND       PRES   REMARKS
GREELEY ARPT   CLOUDY    39  12  33 NW18G28   29.85R
AKRON          PTCLDY    38  11  32 N25G33    29.78R
BURLINGTON     CLEAR     43  10  26 N18G29    29.75R
WRAY           CLEAR     44   8  23 NW17G29   29.76R
STERLING       PTCLDY    43  18  36 N16G25    29.78R
HOLYOKE        CLEAR     43   9  24 N23G36    29.76R
FORT MORGAN    MOCLDY    37  13  36 N20G26    29.82R
$$

COZ086-089-092>099-240000-
...SOUTHEAST COLORADO...

CITY           SKY/WX    TMP DP  RH WIND       PRES   REMARKS
PUEBLO         FLURRIES  35  30  82 NW8       29.84R WCI  29
LA JUNTA       MOCLDY    44  16  32 N9        29.80R
LAMAR          PTCLDY    46  13  26 N15G28    29.76R
SPRINGFIELD      N/A     42  12  29 N21G28    29.77R
$$



USA.gov is the U.S. government's official web portal to all federal, state and local government web resources and services.